Time,TemperatureF,DewpointF,PressureIn,WindDirection,WindDirectionDegrees,WindSpeedMPH,WindSpeedGustMPH,Humidity,HourlyPrecipIn,Conditions,Clouds,dailyrainin,SoftwareType,DateUTC
2013-03-20 00:01:00,57.2,37.7,30.03,NE,45,3.4,4.5,48,0.00,,,0.00,WUHU216HW,2013-03-20 05:01:00,
2013-03-20 00:07:00,57.1,37.5,30.03,North,0,3.1,4.5,48,0.00,,,0.00,WUHU216HW,2013-03-20 05:07:00,
2013-03-20 00:12:00,57.1,37.5,30.02,NNW,338,2.5,4.3,48,0.00,,,0.00,WUHU216HW,2013-03-20 05:12:00,
2013-03-20 00:17:00,56.9,38.0,30.03,ENE,68,4.7,5.4,49,0.00,,,0.00,WUHU216HW,2013-03-20 05:17:00,
2013-03-20 00:22:00,56.9,38.0,30.03,NNE,23,4.3,5.4,49,0.00,,,0.00,WUHU216HW,2013-03-20 05:22:00,
2013-03-20 00:27:00,56.7,38.3,30.03,North,0,3.8,4.5,50,0.00,,,0.00,WUHU216HW,2013-03-20 05:27:00,
2013-03-20 00:32:00,56.5,38.2,30.03,NNE,23,5.4,5.4,50,0.00,,,0.00,WUHU216HW,2013-03-20 05:32:00,
2013-03-20 00:37:00,56.5,38.2,30.03,North,0,1.8,5.4,50,0.00,,,0.00,WUHU216HW,2013-03-20 05:37:00,
2013-03-20 00:42:00,56.3,37.5,30.02,NNE,23,2.0,3.4,49,0.00,,,0.00,WUHU216HW,2013-03-20 05:42:00,
2013-03-20 00:47:00,56.2,37.8,30.03,NW,315,1.3,3.4,50,0.00,,,0.00,WUHU216HW,2013-03-20 05:47:00,
2013-03-20 00:52:00,56.0,37.6,30.03,NNW,338,0.9,3.1,50,0.00,,,0.00,WUHU216HW,2013-03-20 05:52:00,
2013-03-20 00:57:00,55.8,37.4,30.04,NE,45,4.9,4.9,50,0.00,,,0.00,WUHU216HW,2013-03-20 05:57:00,
2013-03-20 01:02:00,55.8,37.4,30.04,North,0,2.5,4.9,50,0.00,,,0.00,WUHU216HW,2013-03-20 06:02:00,
2013-03-20 01:07:00,55.8,37.4,30.04,NNW,338,3.4,4.5,50,0.00,,,0.00,WUHU216HW,2013-03-20 06:07:00,
2013-03-20 01:12:00,55.4,37.1,30.04,NNE,23,1.6,4.9,50,0.00,,,0.00,WUHU216HW,2013-03-20 06:12:00,
2013-03-20 01:17:00,55.3,36.9,30.04,North,0,2.2,4.9,50,0.00,,,0.00,WUHU216HW,2013-03-20 06:17:00,
2013-03-20 01:22:00,55.1,36.7,30.04,NE,45,1.6,4.0,50,0.00,,,0.00,WUHU216HW,2013-03-20 06:22:00,
2013-03-20 01:27:00,54.7,36.5,30.05,North,0,1.3,4.0,50,0.00,,,0.00,WUHU216HW,2013-03-20 06:27:00,
2013-03-20 01:33:00,54.5,36.7,30.05,NNE,23,0.0,2.7,51,0.00,,,0.00,WUHU216HW,2013-03-20 06:33:00,
2013-03-20 01:38:00,54.2,36.5,30.05,NNE,23,1.8,2.7,51,0.00,,,0.00,WUHU216HW,2013-03-20 06:38:00,
2013-03-20 01:43:00,54.0,36.7,30.07,NNW,338,0.9,2.5,52,0.00,,,0.00,WUHU216HW,2013-03-20 06:43:00,
2013-03-20 01:48:00,53.8,37.0,30.07,NNW,338,2.5,2.5,53,0.00,,,0.00,WUHU216HW,2013-03-20 06:48:00,
2013-03-20 01:53:00,53.8,37.0,30.07,North,0,1.8,2.5,53,0.00,,,0.00,WUHU216HW,2013-03-20 06:53:00,
2013-03-20 01:58:00,53.8,37.0,30.07,NNW,338,0.7,3.4,53,0.00,,,0.00,WUHU216HW,2013-03-20 06:58:00,
2013-03-20 02:03:00,53.6,36.9,30.08,NNE,23,2.0,3.4,53,0.00,,,0.00,WUHU216HW,2013-03-20 07:03:00,
2013-03-20 02:08:00,53.6,36.9,30.08,NNW,338,1.1,2.0,53,0.00,,,0.00,WUHU216HW,2013-03-20 07:08:00,
2013-03-20 02:13:00,53.6,37.4,30.08,NNW,338,1.1,2.5,54,0.00,,,0.00,WUHU216HW,2013-03-20 07:13:00,
2013-03-20 02:18:00,53.5,37.2,30.08,North,0,0.9,2.5,54,0.00,,,0.00,WUHU216HW,2013-03-20 07:18:00,
2013-03-20 02:23:00,53.3,37.0,30.08,North,0,0.7,1.8,54,0.00,,,0.00,WUHU216HW,2013-03-20 07:23:00,
2013-03-20 02:28:00,53.1,37.3,30.08,NNW,338,3.4,3.8,55,0.00,,,0.00,WUHU216HW,2013-03-20 07:28:00,
2013-03-20 02:33:00,53.1,37.3,30.08,NNE,23,2.5,3.8,55,0.00,,,0.00,WUHU216HW,2013-03-20 07:33:00,
2013-03-20 02:38:00,52.9,37.1,30.08,NNE,23,1.8,3.4,55,0.00,,,0.00,WUHU216HW,2013-03-20 07:38:00,
2013-03-20 02:43:00,52.6,36.8,30.08,North,0,1.1,3.4,55,0.00,,,0.00,WUHU216HW,2013-03-20 07:43:00,
2013-03-20 02:48:00,52.4,37.1,30.08,NNW,338,0.4,2.2,56,0.00,,,0.00,WUHU216HW,2013-03-20 07:48:00,
2013-03-20 02:53:00,52.2,36.9,30.08,North,0,2.7,2.7,56,0.00,,,0.00,WUHU216HW,2013-03-20 07:53:00,
2013-03-20 02:58:00,52.0,37.2,30.08,North,0,1.1,2.7,57,0.00,,,0.00,WUHU216HW,2013-03-20 07:58:00,
2013-03-20 03:03:00,51.8,37.0,30.08,North,0,0.4,2.2,57,0.00,,,0.00,WUHU216HW,2013-03-20 08:03:00,
2013-03-20 03:08:00,51.5,36.6,30.09,NNW,338,1.3,1.8,57,0.00,,,0.00,WUHU216HW,2013-03-20 08:08:00,
2013-03-20 03:13:00,51.3,37.0,30.09,NNW,338,0.0,2.0,58,0.00,,,0.00,WUHU216HW,2013-03-20 08:13:00,
2013-03-20 03:18:00,51.1,36.8,30.09,NNW,338,0.4,2.0,58,0.00,,,0.00,WUHU216HW,2013-03-20 08:18:00,
2013-03-20 03:23:00,50.8,36.9,30.10,NNW,338,0.4,1.1,59,0.00,,,0.00,WUHU216HW,2013-03-20 08:23:00,
2013-03-20 03:28:00,50.6,37.6,30.10,NNW,338,0.4,1.8,61,0.00,,,0.00,WUHU216HW,2013-03-20 08:28:00,
2013-03-20 03:33:00,50.4,37.4,30.10,North,0,1.8,2.5,61,0.00,,,0.00,WUHU216HW,2013-03-20 08:33:00,
2013-03-20 03:38:00,50.4,37.4,30.11,NW,315,4.0,4.0,61,0.00,,,0.00,WUHU216HW,2013-03-20 08:38:00,
2013-03-20 03:43:00,50.4,37.4,30.11,NNW,338,2.5,4.0,61,0.00,,,0.00,WUHU216HW,2013-03-20 08:43:00,
2013-03-20 03:48:00,50.6,37.6,30.11,NNW,338,0.4,2.7,61,0.00,,,0.00,WUHU216HW,2013-03-20 08:48:00,
2013-03-20 03:53:00,50.4,37.4,30.11,NNW,338,1.8,2.5,61,0.00,,,0.00,WUHU216HW,2013-03-20 08:53:00,
2013-03-20 03:58:00,50.2,37.3,30.11,NNW,338,0.4,3.4,61,0.00,,,0.00,WUHU216HW,2013-03-20 08:58:00,
2013-03-20 04:03:00,50.2,37.3,30.11,NNW,338,2.5,4.9,61,0.00,,,0.00,WUHU216HW,2013-03-20 09:03:00,
2013-03-20 04:08:00,50.2,37.3,30.10,NNW,338,2.9,5.4,61,0.00,,,0.00,WUHU216HW,2013-03-20 09:08:00,
2013-03-20 04:13:00,50.2,36.9,30.10,NNW,338,0.4,5.4,60,0.00,,,0.00,WUHU216HW,2013-03-20 09:13:00,
2013-03-20 04:18:00,50.0,36.7,30.10,NNE,23,3.6,5.4,60,0.00,,,0.00,WUHU216HW,2013-03-20 09:18:00,
2013-03-20 04:23:00,50.0,37.1,30.10,North,0,1.1,4.9,61,0.00,,,0.00,WUHU216HW,2013-03-20 09:23:00,
2013-03-20 04:28:00,49.9,37.0,30.10,NNW,338,4.5,4.7,61,0.00,,,0.00,WUHU216HW,2013-03-20 09:28:00,
2013-03-20 04:33:00,49.7,36.8,30.10,NNE,23,1.8,4.5,61,0.00,,,0.00,WUHU216HW,2013-03-20 09:33:00,
2013-03-20 04:38:00,49.5,36.6,30.09,North,0,2.7,5.4,61,0.00,,,0.00,WUHU216HW,2013-03-20 09:38:00,
2013-03-20 04:43:00,49.5,36.6,30.10,North,0,3.4,5.4,61,0.00,,,0.00,WUHU216HW,2013-03-20 09:43:00,
2013-03-20 04:48:00,49.3,37.3,30.10,NNW,338,3.4,4.7,63,0.00,,,0.00,WUHU216HW,2013-03-20 09:48:00,
2013-03-20 04:53:00,49.1,36.7,30.10,NNW,338,1.8,5.6,62,0.00,,,0.00,WUHU216HW,2013-03-20 09:53:00,
2013-03-20 04:58:00,49.1,36.7,30.09,NNW,338,2.2,5.6,62,0.00,,,0.00,WUHU216HW,2013-03-20 09:58:00,
2013-03-20 05:03:00,49.0,36.9,30.09,North,0,4.0,4.3,63,0.00,,,0.00,WUHU216HW,2013-03-20 10:03:00,
2013-03-20 05:08:00,48.8,36.4,30.10,North,0,1.3,5.4,62,0.00,,,0.00,WUHU216HW,2013-03-20 10:08:00,
2013-03-20 05:13:00,48.6,36.2,30.11,North,0,3.8,5.4,62,0.00,,,0.00,WUHU216HW,2013-03-20 10:13:00,
2013-03-20 05:18:00,48.6,36.2,30.11,North,0,4.0,4.7,62,0.00,,,0.00,WUHU216HW,2013-03-20 10:18:00,
2013-03-20 05:23:00,48.6,36.2,30.11,NE,45,1.8,4.5,62,0.00,,,0.00,WUHU216HW,2013-03-20 10:23:00,
2013-03-20 05:28:00,48.6,36.5,30.11,North,0,5.4,5.4,63,0.00,,,0.00,WUHU216HW,2013-03-20 10:28:00,
2013-03-20 05:33:00,48.6,36.2,30.11,North,0,3.8,5.4,62,0.00,,,0.00,WUHU216HW,2013-03-20 10:33:00,
2013-03-20 05:38:00,48.6,36.2,30.11,NNW,338,1.1,5.1,62,0.00,,,0.00,WUHU216HW,2013-03-20 10:38:00,
2013-03-20 05:43:00,48.8,36.4,30.11,North,0,2.2,4.5,62,0.00,,,0.00,WUHU216HW,2013-03-20 10:43:00,
2013-03-20 05:48:00,48.6,36.2,30.12,NNW,338,1.1,2.5,62,0.00,,,0.00,WUHU216HW,2013-03-20 10:48:00,
2013-03-20 05:53:00,48.6,36.2,30.11,NW,315,3.1,3.1,62,0.00,,,0.00,WUHU216HW,2013-03-20 10:53:00,
2013-03-20 05:59:00,48.6,36.2,30.11,NNW,338,2.0,5.1,62,0.00,,,0.00,WUHU216HW,2013-03-20 10:59:00,
2013-03-20 06:04:00,48.6,36.5,30.11,North,0,2.7,5.1,63,0.00,,,0.00,WUHU216HW,2013-03-20 11:04:00,
2013-03-20 06:09:00,48.6,36.5,30.11,WNW,293,2.7,2.7,63,0.00,,,0.00,WUHU216HW,2013-03-20 11:09:00,
2013-03-20 06:14:00,48.6,36.5,30.11,NNE,23,1.3,4.7,63,0.00,,,0.00,WUHU216HW,2013-03-20 11:14:00,
2013-03-20 06:19:00,48.8,36.7,30.12,North,0,1.3,4.7,63,0.00,,,0.00,WUHU216HW,2013-03-20 11:19:00,
2013-03-20 06:24:00,48.8,36.7,30.13,North,0,1.6,3.8,63,0.00,,,0.00,WUHU216HW,2013-03-20 11:24:00,
2013-03-20 06:29:00,48.8,36.4,30.13,North,0,2.2,4.0,62,0.00,,,0.00,WUHU216HW,2013-03-20 11:29:00,
2013-03-20 06:34:00,48.6,36.2,30.13,North,0,2.5,4.0,62,0.00,,,0.00,WUHU216HW,2013-03-20 11:34:00,
2013-03-20 06:39:00,48.4,36.0,30.13,North,0,4.5,4.5,62,0.00,,,0.00,WUHU216HW,2013-03-20 11:39:00,
2013-03-20 06:44:00,48.2,36.3,30.13,North,0,1.3,4.5,63,0.00,,,0.00,WUHU216HW,2013-03-20 11:44:00,
2013-03-20 06:49:00,47.9,35.9,30.14,NNW,338,1.1,2.0,63,0.00,,,0.00,WUHU216HW,2013-03-20 11:49:00,
2013-03-20 06:54:00,47.7,35.7,30.14,North,0,2.0,2.5,63,0.00,,,0.00,WUHU216HW,2013-03-20 11:54:00,
2013-03-20 06:59:00,47.5,35.6,30.15,North,0,2.0,2.5,63,0.00,,,0.00,WUHU216HW,2013-03-20 11:59:00,
2013-03-20 07:04:00,47.2,35.2,30.15,North,0,0.7,2.0,63,0.00,,,0.00,WUHU216HW,2013-03-20 12:04:00,
2013-03-20 07:09:00,47.0,35.0,30.15,NNW,338,0.0,2.0,63,0.00,,,0.00,WUHU216HW,2013-03-20 12:09:00,
2013-03-20 07:14:00,46.8,35.2,30.16,WNW,293,0.4,1.8,64,0.00,,,0.00,WUHU216HW,2013-03-20 12:14:00,
2013-03-20 07:19:00,46.4,34.9,30.16,NNW,338,0.7,1.3,64,0.00,,,0.00,WUHU216HW,2013-03-20 12:19:00,
2013-03-20 07:24:00,46.4,35.3,30.17,North,0,0.7,2.0,65,0.00,,,0.00,WUHU216HW,2013-03-20 12:24:00,
2013-03-20 07:29:00,46.3,35.1,30.17,NNW,338,0.4,2.0,65,0.00,,,0.00,WUHU216HW,2013-03-20 12:29:00,
2013-03-20 07:34:00,46.1,35.4,30.18,West,270,0.7,1.3,66,0.00,,,0.00,WUHU216HW,2013-03-20 12:34:00,
2013-03-20 07:39:00,45.4,35.0,30.18,NW,315,0.4,1.3,67,0.00,,,0.00,WUHU216HW,2013-03-20 12:39:00,
2013-03-20 07:44:00,45.0,34.7,30.18,NNW,338,0.0,0.7,67,0.00,,,0.00,WUHU216HW,2013-03-20 12:44:00,
2013-03-20 07:49:00,45.0,34.7,30.19,NNW,338,0.0,0.2,67,0.00,,,0.00,WUHU216HW,2013-03-20 12:49:00,
2013-03-20 07:54:00,45.0,34.7,30.19,NW,315,0.0,0.2,67,0.00,,,0.00,WUHU216HW,2013-03-20 12:54:00,
2013-03-20 07:59:00,45.2,35.2,30.19,NNW,338,0.4,0.9,68,0.00,,,0.00,WUHU216HW,2013-03-20 12:59:00,
2013-03-20 08:04:00,45.5,36.0,30.19,NNW,338,0.0,0.9,69,0.00,,,0.00,WUHU216HW,2013-03-20 13:04:00,
2013-03-20 08:09:00,46.1,36.1,30.19,North,0,1.1,1.1,68,0.00,,,0.00,WUHU216HW,2013-03-20 13:09:00,
2013-03-20 08:14:00,46.8,36.5,30.19,NNW,338,1.1,2.5,67,0.00,,,0.00,WUHU216HW,2013-03-20 13:14:00,
2013-03-20 08:19:00,47.5,37.1,30.20,NNW,338,1.8,2.5,67,0.00,,,0.00,WUHU216HW,2013-03-20 13:19:00,
2013-03-20 08:24:00,48.2,37.0,30.19,NW,315,2.2,3.1,65,0.00,,,0.00,WUHU216HW,2013-03-20 13:24:00,
2013-03-20 08:29:00,48.8,37.5,30.19,North,0,4.9,4.9,65,0.00,,,0.00,WUHU216HW,2013-03-20 13:29:00,
2013-03-20 08:34:00,49.3,37.6,30.20,North,0,2.5,4.9,64,0.00,,,0.00,WUHU216HW,2013-03-20 13:34:00,
2013-03-20 08:39:00,50.0,38.4,30.20,North,0,3.4,5.4,64,0.00,,,0.00,WUHU216HW,2013-03-20 13:39:00,
2013-03-20 08:44:00,50.4,37.8,30.20,North,0,3.8,5.4,62,0.00,,,0.00,WUHU216HW,2013-03-20 13:44:00,
2013-03-20 08:49:00,50.6,37.6,30.20,North,0,3.4,5.4,61,0.00,,,0.00,WUHU216HW,2013-03-20 13:49:00,
2013-03-20 08:54:00,50.9,38.0,30.21,NNW,338,4.7,5.4,61,0.00,,,0.00,WUHU216HW,2013-03-20 13:54:00,
2013-03-20 08:59:00,51.5,37.5,30.21,NNW,338,1.8,5.4,59,0.00,,,0.00,WUHU216HW,2013-03-20 13:59:00,
2013-03-20 09:04:00,51.8,37.4,30.21,NNW,338,2.2,5.4,58,0.00,,,0.00,WUHU216HW,2013-03-20 14:04:00,
2013-03-20 09:09:00,52.2,37.8,30.21,North,0,5.6,5.6,58,0.00,,,0.00,WUHU216HW,2013-03-20 14:09:00,
2013-03-20 09:14:00,52.7,37.9,30.21,North,0,6.0,6.0,57,0.00,,,0.00,WUHU216HW,2013-03-20 14:14:00,
2013-03-20 09:19:00,53.3,37.9,30.21,NW,315,3.8,6.7,56,0.00,,,0.00,WUHU216HW,2013-03-20 14:19:00,
2013-03-20 09:24:00,53.6,37.8,30.21,North,0,2.7,6.7,55,0.00,,,0.00,WUHU216HW,2013-03-20 14:24:00,
2013-03-20 09:29:00,53.6,37.4,30.22,North,0,4.5,4.9,54,0.00,,,0.00,WUHU216HW,2013-03-20 14:29:00,
2013-03-20 09:34:00,54.2,36.9,30.22,NNE,23,4.9,5.8,52,0.00,,,0.00,WUHU216HW,2013-03-20 14:34:00,
2013-03-20 09:39:00,54.7,37.8,30.22,NE,45,4.5,5.8,53,0.00,,,0.00,WUHU216HW,2013-03-20 14:39:00,
2013-03-20 09:44:00,55.3,37.9,30.22,East,90,1.8,4.5,52,0.00,,,0.00,WUHU216HW,2013-03-20 14:44:00,
2013-03-20 09:49:00,55.4,37.1,30.22,NNW,338,3.6,4.0,50,0.00,,,0.00,WUHU216HW,2013-03-20 14:49:00,
2013-03-20 09:54:00,55.6,37.3,30.22,NNW,338,2.7,3.6,50,0.00,,,0.00,WUHU216HW,2013-03-20 14:54:00,
2013-03-20 10:00:00,55.8,37.4,30.22,North,0,1.8,5.1,50,0.00,,,0.00,WUHU216HW,2013-03-20 15:00:00,
2013-03-20 10:05:00,56.2,37.8,30.22,NNE,23,4.3,5.1,50,0.00,,,0.00,WUHU216HW,2013-03-20 15:05:00,
2013-03-20 10:10:00,56.5,37.6,30.23,NW,315,4.5,5.1,49,0.00,,,0.00,WUHU216HW,2013-03-20 15:10:00,
2013-03-20 10:15:00,56.5,37.6,30.23,North,0,6.9,6.9,49,0.00,,,0.00,WUHU216HW,2013-03-20 15:15:00,
2013-03-20 10:20:00,57.4,37.9,30.23,North,0,3.1,6.9,48,0.00,,,0.00,WUHU216HW,2013-03-20 15:20:00,
2013-03-20 10:25:00,58.1,38.0,30.23,NW,315,4.0,6.3,47,0.00,,,0.00,WUHU216HW,2013-03-20 15:25:00,
2013-03-20 10:30:00,58.1,38.5,30.23,North,0,6.7,6.7,48,0.00,,,0.00,WUHU216HW,2013-03-20 15:30:00,
2013-03-20 10:35:00,58.5,37.2,30.23,NE,45,6.7,6.7,45,0.00,,,0.00,WUHU216HW,2013-03-20 15:35:00,
2013-03-20 10:40:00,59.4,38.5,30.23,NE,45,4.7,6.7,46,0.00,,,0.00,WUHU216HW,2013-03-20 15:40:00,
2013-03-20 10:45:00,59.6,38.7,30.23,NNW,338,2.5,6.5,46,0.00,,,0.00,WUHU216HW,2013-03-20 15:45:00,
2013-03-20 10:50:00,59.9,39.0,30.23,NNW,338,3.6,6.9,46,0.00,,,0.00,WUHU216HW,2013-03-20 15:50:00,
2013-03-20 10:55:00,60.3,38.8,30.23,NNW,338,4.7,6.9,45,0.00,,,0.00,WUHU216HW,2013-03-20 15:55:00,
2013-03-20 11:00:00,60.3,38.8,30.23,North,0,2.0,4.9,45,0.00,,,0.00,WUHU216HW,2013-03-20 16:00:00,
2013-03-20 11:05:00,60.8,38.7,30.23,ENE,68,3.1,5.1,44,0.00,,,0.00,WUHU216HW,2013-03-20 16:05:00,
2013-03-20 11:10:00,61.6,39.9,30.23,NW,315,3.6,5.1,45,0.00,,,0.00,WUHU216HW,2013-03-20 16:10:00,
2013-03-20 11:15:00,62.1,39.3,30.23,North,0,5.1,5.4,43,0.00,,,0.00,WUHU216HW,2013-03-20 16:15:00,
2013-03-20 11:20:00,62.3,39.4,30.22,NE,45,4.9,5.4,43,0.00,,,0.00,WUHU216HW,2013-03-20 16:20:00,
2013-03-20 11:25:00,62.5,38.4,30.22,North,0,3.4,5.1,41,0.00,,,0.00,WUHU216HW,2013-03-20 16:25:00,
2013-03-20 11:30:00,62.5,38.4,30.22,ENE,68,4.0,5.1,41,0.00,,,0.00,WUHU216HW,2013-03-20 16:30:00,
2013-03-20 11:35:00,63.0,38.9,30.22,NW,315,1.8,5.1,41,0.00,,,0.00,WUHU216HW,2013-03-20 16:35:00,
2013-03-20 11:41:00,63.7,39.5,30.22,NNW,338,1.8,5.1,41,0.00,,,0.00,WUHU216HW,2013-03-20 16:41:00,
2013-03-20 11:46:00,64.3,39.4,30.22,NNE,23,3.8,6.5,40,0.00,,,0.00,WUHU216HW,2013-03-20 16:46:00,
2013-03-20 11:51:00,64.4,38.9,30.22,North,0,2.2,6.9,39,0.00,,,0.00,WUHU216HW,2013-03-20 16:51:00,
2013-03-20 11:56:00,64.4,38.9,30.22,NNE,23,3.8,6.9,39,0.00,,,0.00,WUHU216HW,2013-03-20 16:56:00,
2013-03-20 12:00:00,64.6,38.4,30.22,North,0,0.9,6.0,38,0.00,,,0.00,WUHU216HW,2013-03-20 17:00:00,
2013-03-20 12:06:00,64.4,38.9,30.22,NW,315,1.8,6.0,39,0.00,,,0.00,WUHU216HW,2013-03-20 17:06:00,
2013-03-20 12:11:00,65.3,40.4,30.22,North,0,3.4,5.6,40,0.00,,,0.00,WUHU216HW,2013-03-20 17:11:00,
2013-03-20 12:16:00,66.6,41.6,30.21,NNW,338,3.8,5.6,40,0.00,,,0.00,WUHU216HW,2013-03-20 17:16:00,
2013-03-20 12:21:00,66.4,37.1,30.21,NNW,338,3.4,5.1,34,0.00,,,0.00,WUHU216HW,2013-03-20 17:21:00,
2013-03-20 12:26:00,65.3,37.5,30.21,NNW,338,4.7,4.7,36,0.00,,,0.00,WUHU216HW,2013-03-20 17:26:00,
2013-03-20 12:31:00,65.9,38.0,30.21,North,0,5.4,5.4,36,0.00,,,0.00,WUHU216HW,2013-03-20 17:31:00,
2013-03-20 12:36:00,66.6,37.2,30.20,NW,315,3.4,8.5,34,0.00,,,0.00,WUHU216HW,2013-03-20 17:36:00,
2013-03-20 12:41:00,66.2,36.9,30.20,NW,315,5.4,8.5,34,0.00,,,0.00,WUHU216HW,2013-03-20 17:41:00,
2013-03-20 12:46:00,65.9,37.3,30.20,North,0,4.5,8.9,35,0.00,,,0.00,WUHU216HW,2013-03-20 17:46:00,
2013-03-20 12:51:00,65.5,36.3,30.20,NNE,23,5.4,9.4,34,0.00,,,0.00,WUHU216HW,2013-03-20 17:51:00,
2013-03-20 12:56:00,65.9,36.5,30.20,North,0,4.7,9.4,34,0.00,,,0.00,WUHU216HW,2013-03-20 17:56:00,
2013-03-20 13:01:00,66.2,36.9,30.19,NNW,338,2.7,5.1,34,0.00,,,0.00,WUHU216HW,2013-03-20 18:01:00,
2013-03-20 13:06:00,66.2,35.5,30.19,NW,315,4.9,5.4,32,0.00,,,0.00,WUHU216HW,2013-03-20 18:06:00,
2013-03-20 13:12:00,66.2,36.9,30.19,North,0,7.4,11.2,34,0.00,,,0.00,WUHU216HW,2013-03-20 18:12:00,
2013-03-20 13:17:00,66.6,35.7,30.19,North,0,5.4,11.2,32,0.00,,,0.00,WUHU216HW,2013-03-20 18:17:00,
2013-03-20 13:22:00,67.0,36.1,30.19,North,0,4.7,8.5,32,0.00,,,0.00,WUHU216HW,2013-03-20 18:22:00,
2013-03-20 13:27:00,67.3,36.4,30.18,NW,315,4.0,11.4,32,0.00,,,0.00,WUHU216HW,2013-03-20 18:27:00,
2013-03-20 13:32:00,67.0,35.3,30.18,NNW,338,4.0,11.4,31,0.00,,,0.00,WUHU216HW,2013-03-20 18:32:00,
2013-03-20 13:37:00,67.0,33.6,30.18,NW,315,4.7,7.6,29,0.00,,,0.00,WUHU216HW,2013-03-20 18:37:00,
2013-03-20 13:42:00,67.5,35.7,30.18,NNW,338,4.0,7.6,31,0.00,,,0.00,WUHU216HW,2013-03-20 18:42:00,
2013-03-20 13:47:00,68.4,36.6,30.17,NNE,23,2.5,5.6,31,0.00,,,0.00,WUHU216HW,2013-03-20 18:47:00,
2013-03-20 13:52:00,68.8,35.1,30.17,NNW,338,5.4,7.6,29,0.00,,,0.00,WUHU216HW,2013-03-20 18:52:00,
2013-03-20 13:57:00,68.8,35.1,30.17,NW,315,6.0,7.6,29,0.00,,,0.00,WUHU216HW,2013-03-20 18:57:00,
2013-03-20 14:02:00,68.9,34.3,30.17,NW,315,3.1,6.9,28,0.00,,,0.00,WUHU216HW,2013-03-20 19:02:00,
2013-03-20 14:07:00,67.7,33.2,30.17,NE,45,5.1,7.6,28,0.00,,,0.00,WUHU216HW,2013-03-20 19:07:00,
2013-03-20 14:12:00,68.4,34.8,30.16,North,0,9.2,9.2,29,0.00,,,0.00,WUHU216HW,2013-03-20 19:12:00,
2013-03-20 14:17:00,68.8,32.1,30.16,NW,315,5.4,9.2,26,0.00,,,0.00,WUHU216HW,2013-03-20 19:17:00,
2013-03-20 14:22:00,68.9,34.3,30.16,North,0,3.1,7.6,28,0.00,,,0.00,WUHU216HW,2013-03-20 19:22:00,
2013-03-20 14:27:00,69.1,34.5,30.15,NNW,338,3.6,7.8,28,0.00,,,0.00,WUHU216HW,2013-03-20 19:27:00,
2013-03-20 14:32:00,69.8,32.0,30.15,NNE,23,6.3,7.8,25,0.00,,,0.00,WUHU216HW,2013-03-20 19:32:00,
2013-03-20 14:37:00,70.2,35.4,30.14,NNE,23,3.8,6.3,28,0.00,,,0.00,WUHU216HW,2013-03-20 19:37:00,
2013-03-20 14:42:00,70.6,32.7,30.14,NW,315,4.5,6.9,25,0.00,,,0.00,WUHU216HW,2013-03-20 19:42:00,
2013-03-20 14:47:00,68.6,31.0,30.13,West,270,2.7,6.9,25,0.00,,,0.00,WUHU216HW,2013-03-20 19:47:00,
2013-03-20 14:55:00,68.4,31.8,30.13,NW,315,5.4,6.7,26,0.00,,,0.00,WUHU216HW,2013-03-20 19:55:00,
2013-03-20 15:00:00,70.0,36.3,30.13,North,0,3.6,10.3,29,0.00,,,0.00,WUHU216HW,2013-03-20 20:00:00,
2013-03-20 15:05:00,70.2,34.4,30.13,North,0,5.4,7.4,27,0.00,,,0.00,WUHU216HW,2013-03-20 20:05:00,
2013-03-20 15:10:00,70.2,32.3,30.12,North,0,8.7,8.7,25,0.00,,,0.00,WUHU216HW,2013-03-20 20:10:00,
2013-03-20 15:15:00,70.0,33.2,30.12,North,0,4.5,8.7,26,0.00,,,0.00,WUHU216HW,2013-03-20 20:15:00,
2013-03-20 15:20:00,70.4,33.5,30.12,NNE,23,8.5,8.5,26,0.00,,,0.00,WUHU216HW,2013-03-20 20:20:00,
2013-03-20 15:25:00,70.9,34.0,30.11,NNW,338,1.1,9.2,26,0.00,,,0.00,WUHU216HW,2013-03-20 20:25:00,
2013-03-20 15:30:00,70.2,34.4,30.11,North,0,4.0,9.2,27,0.00,,,0.00,WUHU216HW,2013-03-20 20:30:00,
2013-03-20 15:35:00,71.3,34.3,30.11,NW,315,4.0,10.5,26,0.00,,,0.00,WUHU216HW,2013-03-20 20:35:00,
2013-03-20 15:40:00,71.5,34.5,30.11,NNW,338,2.7,10.5,26,0.00,,,0.00,WUHU216HW,2013-03-20 20:40:00,
2013-03-20 15:45:00,70.2,33.4,30.10,NW,315,6.9,8.9,26,0.00,,,0.00,WUHU216HW,2013-03-20 20:45:00,
2013-03-20 15:50:00,69.5,32.8,30.10,NNW,338,6.3,6.9,26,0.00,,,0.00,WUHU216HW,2013-03-20 20:50:00,
2013-03-20 15:55:00,70.6,36.7,30.10,NNW,338,6.0,6.3,29,0.00,,,0.00,WUHU216HW,2013-03-20 20:55:00,
2013-03-20 16:00:00,72.0,36.9,30.09,North,0,2.9,6.0,28,0.00,,,0.00,WUHU216HW,2013-03-20 21:00:00,
2013-03-20 16:05:00,74.0,36.5,30.09,North,0,3.6,4.3,26,0.00,,,0.00,WUHU216HW,2013-03-20 21:05:00,
2013-03-20 16:10:00,74.9,36.4,30.09,ENE,68,2.2,4.5,25,0.00,,,0.00,WUHU216HW,2013-03-20 21:10:00,
2013-03-20 16:15:00,75.2,36.6,30.09,North,0,4.9,6.5,25,0.00,,,0.00,WUHU216HW,2013-03-20 21:15:00,
2013-03-20 16:20:00,75.2,35.7,30.09,North,0,4.0,6.9,24,0.00,,,0.00,WUHU216HW,2013-03-20 21:20:00,
2013-03-20 16:25:00,76.1,36.4,30.10,North,0,5.1,8.7,24,0.00,,,0.00,WUHU216HW,2013-03-20 21:25:00,
2013-03-20 16:30:00,74.9,34.3,30.09,NNW,338,4.7,8.7,23,0.00,,,0.00,WUHU216HW,2013-03-20 21:30:00,
2013-03-20 16:35:00,74.9,34.3,30.08,North,0,2.5,6.3,23,0.00,,,0.00,WUHU216HW,2013-03-20 21:35:00,
2013-03-20 16:40:00,76.0,36.2,30.08,NW,315,5.4,6.3,24,0.00,,,0.00,WUHU216HW,2013-03-20 21:40:00,
2013-03-20 16:45:00,75.4,34.8,30.08,North,0,4.9,9.8,23,0.00,,,0.00,WUHU216HW,2013-03-20 21:45:00,
2013-03-20 16:50:00,75.2,33.6,30.07,NNE,23,4.9,9.8,22,0.00,,,0.00,WUHU216HW,2013-03-20 21:50:00,
2013-03-20 16:55:00,76.3,34.5,30.07,NNW,338,4.0,6.5,22,0.00,,,0.00,WUHU216HW,2013-03-20 21:55:00,
2013-03-20 17:00:00,76.3,34.5,30.07,North,0,5.1,6.5,22,0.00,,,0.00,WUHU216HW,2013-03-20 22:00:00,
2013-03-20 17:05:00,76.5,34.6,30.08,North,0,4.3,6.9,22,0.00,,,0.00,WUHU216HW,2013-03-20 22:05:00,
2013-03-20 17:10:00,78.1,35.9,30.07,East,90,1.3,6.9,22,0.00,,,0.00,WUHU216HW,2013-03-20 22:10:00,
2013-03-20 17:16:00,77.4,35.3,30.07,WNW,293,3.4,4.7,22,0.00,,,0.00,WUHU216HW,2013-03-20 22:16:00,
2013-03-20 17:20:00,76.7,34.8,30.06,NNE,23,1.8,4.7,22,0.00,,,0.00,WUHU216HW,2013-03-20 22:20:00,
2013-03-20 17:25:00,77.8,35.7,30.07,NW,315,1.3,4.0,22,0.00,,,0.00,WUHU216HW,2013-03-20 22:25:00,
2013-03-20 17:30:00,78.8,37.5,30.06,NNE,23,4.5,4.5,23,0.00,,,0.00,WUHU216HW,2013-03-20 22:30:00,
2013-03-20 17:35:00,78.7,32.6,30.06,NW,315,2.5,4.5,19,0.00,,,0.00,WUHU216HW,2013-03-20 22:35:00,
2013-03-20 17:41:00,76.7,33.7,30.06,North,0,2.9,4.3,21,0.00,,,0.00,WUHU216HW,2013-03-20 22:41:00,
2013-03-20 17:46:00,75.4,33.7,30.06,NNW,338,2.5,4.0,22,0.00,,,0.00,WUHU216HW,2013-03-20 22:46:00,
2013-03-20 17:51:00,71.6,31.5,30.06,NNW,338,1.1,4.0,23,0.00,,,0.00,WUHU216HW,2013-03-20 22:51:00,
2013-03-20 17:56:00,70.7,32.8,30.06,North,0,0.4,3.1,25,0.00,,,0.00,WUHU216HW,2013-03-20 22:56:00,
2013-03-20 18:01:00,73.8,35.4,30.06,North,0,1.6,1.6,25,0.00,,,0.00,WUHU216HW,2013-03-20 23:01:00,
2013-03-20 18:06:00,77.2,36.2,30.05,North,0,2.2,4.0,23,0.00,,,0.00,WUHU216HW,2013-03-20 23:06:00,
2013-03-20 18:11:00,77.4,35.3,30.05,North,0,2.5,4.7,22,0.00,,,0.00,WUHU216HW,2013-03-20 23:11:00,
2013-03-20 18:16:00,76.7,35.7,30.05,North,0,2.5,4.7,23,0.00,,,0.00,WUHU216HW,2013-03-20 23:16:00,
2013-03-20 18:22:00,76.7,35.7,30.04,North,0,3.4,4.7,23,0.00,,,0.00,WUHU216HW,2013-03-20 23:22:00,
2013-03-20 18:27:00,76.7,34.8,30.04,NNW,338,2.2,5.6,22,0.00,,,0.00,WUHU216HW,2013-03-20 23:27:00,
2013-03-20 18:32:00,77.4,35.3,30.04,NNE,23,4.3,5.6,22,0.00,,,0.00,WUHU216HW,2013-03-20 23:32:00,
2013-03-20 18:37:00,78.5,36.2,30.04,North,0,1.1,4.3,22,0.00,,,0.00,WUHU216HW,2013-03-20 23:37:00,
2013-03-20 18:42:00,78.7,35.3,30.04,North,0,2.0,5.1,21,0.00,,,0.00,WUHU216HW,2013-03-20 23:42:00,
2013-03-20 18:47:00,75.6,33.8,30.04,NNW,338,1.8,5.1,22,0.00,,,0.00,WUHU216HW,2013-03-20 23:47:00,
2013-03-20 18:53:00,72.5,32.3,30.04,NW,315,3.6,4.5,23,0.00,,,0.00,WUHU216HW,2013-03-20 23:53:00,
2013-03-20 18:58:00,70.4,31.5,30.04,North,0,0.9,4.5,24,0.00,,,0.00,WUHU216HW,2013-03-20 23:58:00,
2013-03-20 19:03:00,69.3,31.6,30.04,North,0,0.0,1.6,25,0.00,,,0.00,WUHU216HW,2013-03-21 00:03:00,
2013-03-20 19:08:00,68.9,32.3,30.04,NNE,23,0.0,1.6,26,0.00,,,0.00,WUHU216HW,2013-03-21 00:08:00,
2013-03-20 19:13:00,68.6,32.0,30.03,NNE,23,0.0,1.1,26,0.00,,,0.00,WUHU216HW,2013-03-21 00:13:00,
2013-03-20 19:18:00,67.5,32.0,30.03,NNE,23,0.0,0.4,27,0.00,,,0.00,WUHU216HW,2013-03-21 00:18:00,
2013-03-20 19:23:00,66.2,32.1,30.03,NNE,23,0.0,0.0,28,0.00,,,0.00,WUHU216HW,2013-03-21 00:23:00,
2013-03-20 19:28:00,64.6,31.6,30.03,NNE,23,0.0,0.0,29,0.00,,,0.00,WUHU216HW,2013-03-21 00:28:00,
2013-03-20 19:33:00,63.0,30.2,30.03,NNE,23,0.0,0.0,29,0.00,,,0.00,WUHU216HW,2013-03-21 00:33:00,
2013-03-20 19:38:00,61.7,30.7,30.03,NNE,23,0.0,0.0,31,0.00,,,0.00,WUHU216HW,2013-03-21 00:38:00,
2013-03-20 19:43:00,61.0,31.5,30.03,NNE,23,0.0,0.0,33,0.00,,,0.00,WUHU216HW,2013-03-21 00:43:00,
2013-03-20 19:48:00,60.7,33.3,30.03,NNE,23,0.0,0.0,36,0.00,,,0.00,WUHU216HW,2013-03-21 00:48:00,
2013-03-20 19:53:00,60.3,33.0,30.03,NNE,23,0.0,0.0,36,0.00,,,0.00,WUHU216HW,2013-03-21 00:53:00,
2013-03-20 19:58:00,59.9,34.1,30.03,NNE,23,0.0,0.0,38,0.00,,,0.00,WUHU216HW,2013-03-21 00:58:00,
2013-03-20 20:03:00,59.2,33.5,30.03,NNE,23,0.0,0.0,38,0.00,,,0.00,WUHU216HW,2013-03-21 01:03:00,
2013-03-20 20:08:00,58.1,33.9,30.03,NNE,23,0.0,0.0,40,0.00,,,0.00,WUHU216HW,2013-03-21 01:08:00,
2013-03-20 20:13:00,57.2,33.7,30.03,NNE,23,0.0,0.0,41,0.00,,,0.00,WUHU216HW,2013-03-21 01:13:00,
2013-03-20 20:18:00,56.7,33.8,30.03,NNE,23,0.0,0.0,42,0.00,,,0.00,WUHU216HW,2013-03-21 01:18:00,
2013-03-20 20:23:00,56.0,33.7,30.03,NNE,23,0.0,0.0,43,0.00,,,0.00,WUHU216HW,2013-03-21 01:23:00,